TimeEST,TemperatureF,Dew PointF,Humidity,Sea Level PressureIn,VisibilityMPH,Wind Direction,Wind SpeedMPH,Gust SpeedMPH,PrecipitationIn,Events,Conditions,WindDirDegrees,DateUTC
12:53 AM,33.1,21.9,64,30.08,10.0,WNW,9.2,-,N/A,,Clear,290,2013-02-17 05:53:00
1:53 AM,32.0,19.0,59,30.10,10.0,WNW,9.2,-,N/A,,Clear,290,2013-02-17 06:53:00
2:53 AM,32.0,18.0,56,30.10,10.0,WNW,9.2,-,N/A,,Clear,290,2013-02-17 07:53:00
3:53 AM,30.9,18.0,59,30.10,10.0,WNW,6.9,-,N/A,,Clear,300,2013-02-17 08:53:00
4:53 AM,30.0,17.1,59,30.12,10.0,WNW,8.1,-,N/A,,Clear,300,2013-02-17 09:53:00
5:53 AM,30.0,16.0,56,30.14,10.0,WNW,8.1,-,N/A,,Clear,300,2013-02-17 10:53:00
6:53 AM,28.9,16.0,58,30.18,10.0,WNW,8.1,-,N/A,,Clear,290,2013-02-17 11:53:00
7:53 AM,30.0,15.1,54,30.21,10.0,WNW,10.4,-,N/A,,Clear,290,2013-02-17 12:53:00
8:53 AM,33.1,15.1,48,30.24,10.0,WNW,6.9,-,N/A,,Clear,300,2013-02-17 13:53:00
9:53 AM,36.0,10.9,36,30.25,10.0,WNW,17.3,21.9,N/A,,Clear,290,2013-02-17 14:53:00
10:53 AM,37.9,10.0,32,30.25,10.0,NW,10.4,18.4,N/A,,Clear,310,2013-02-17 15:53:00
11:53 AM,41.0,9.0,27,30.24,10.0,WNW,11.5,-,N/A,,Clear,290,2013-02-17 16:53:00
12:53 PM,42.1,8.1,25,30.23,10.0,NW,12.7,24.2,N/A,,Clear,310,2013-02-17 17:53:00
1:53 PM,45.0,9.0,23,30.20,10.0,WNW,11.5,21.9,N/A,,Clear,290,2013-02-17 18:53:00
2:53 PM,46.0,8.1,21,30.19,10.0,NW,9.2,23.0,N/A,,Clear,320,2013-02-17 19:53:00
3:53 PM,46.9,9.0,21,30.19,10.0,NW,11.5,17.3,N/A,,Clear,310,2013-02-17 20:53:00
4:53 PM,46.9,9.0,21,30.20,10.0,WNW,11.5,-,N/A,,Clear,300,2013-02-17 21:53:00
5:53 PM,45.0,10.9,25,30.21,10.0,West,5.8,-,N/A,,Clear,270,2013-02-17 22:53:00
6:53 PM,39.0,17.1,41,30.24,10.0,West,3.5,-,N/A,,Clear,260,2013-02-17 23:53:00
7:53 PM,37.0,16.0,42,30.27,10.0,SW,3.5,-,N/A,,Clear,220,2013-02-18 00:53:00
8:53 PM,34.0,18.0,52,30.28,10.0,Calm,Calm,-,N/A,,Clear,0,2013-02-18 01:53:00
9:53 PM,34.0,17.1,50,30.30,10.0,South,3.5,-,N/A,,Clear,180,2013-02-18 02:53:00
10:53 PM,33.1,18.0,54,30.31,10.0,SSE,4.6,-,N/A,,Clear,150,2013-02-18 03:53:00